Weather History for Eugene, OR

Change the Weather History Date:

Sunday, January 13, 2013

  Actual Average Record
Temperature  
Mean Temperature 29 °F 40 °F  
Max Temperature 29 °F 47 °F 62 °F (1968)
Min Temperature 28 °F 34 °F 10 °F (1949)
Degree Days  
Heating Degree Days 36 24  
Month to date heating degree days 358 325  
Since 1 July heating degree days 1984 2282  
Cooling Degree Days 0 0  
Month to date cooling degree days 0 0  
Year to date cooling degree days 0 0  
Moisture  
Dew Point 27 °F    
Average Humidity 93    
Maximum Humidity 100    
Minimum Humidity 85    
Precipitation  
Precipitation T in 0.23 in 4.15 in (1995)
Month to date precipitation 0.31 3.11  
Year to date precipitation 0.31 3.11  
Snow  
Snow 0.00 in - - ()
Month to date snowfall 0.0  
Since 1 July snowfall 0.0  
Snow Depth 0.00 in    
Sea Level Pressure  
Sea Level Pressure 30.45 in    
Wind  
Wind Speed 4 mph (NE)    
Max Wind Speed 10 mph    
Max Gust Speed 13 mph    
Visibility 4 miles    
Events      
T = Trace of Precipitation, MM = Missing Value Source: NWS Daily Summary

Daily Weather History Graph

Daily Weather History Graph

Search for Another Location

Airport:

Trip Planner

Search our weather history database for the weather conditions in past years. The results will help you decide how hot, cold, wet, or windy it might be!

Date:

Astronomy

Jan. 13, 2013 Rise Set
Actual Time 7:45 AM PST 4:58 PM PST
Civil Twilight 7:13 AM PST 5:30 PM PST
Nautical Twilight 6:37 AM PST 6:06 PM PST
Astronomical Twilight 6:02 AM PST 6:41 PM PST
Moon 8:41 AM PST (1/13) 7:50 PM PST (1/13)
Length of Visible Light 10h 17m
Length of Day
9h 12m
Waxing Crescent, 6% of the Moon is Illuminated
Jan 13
Waxing Crescent
Jan 18
First Quarter
Jan 26
Full
Feb 3
Last Quarter
Feb 9
New

Hourly Weather History & Observations

Time (PST) Temp. Windchill Dew Point Humidity Pressure Visibility Wind Dir Wind Speed Gust Speed Precip Events Conditions
12:28 AM 28.4 °F 23.3 °F 28.4 °F 100% 30.40 in 1.8 mi ENE 4.6 mph - N/A   Overcast
12:54 AM 28.0 °F 24.2 °F 28.0 °F 100% 30.42 in 1.5 mi East 3.5 mph - N/A   Overcast
1:30 AM 28.4 °F 24.6 °F 28.4 °F 100% 30.41 in 2.0 mi Variable 3.5 mph - N/A   Overcast
1:54 AM 28.0 °F - 28.0 °F 100% 30.43 in 2.0 mi Calm Calm - N/A   Overcast
2:02 AM 28.4 °F 24.6 °F 28.4 °F 100% 30.41 in 1.5 mi East 3.5 mph - N/A   Overcast
2:33 AM 28.4 °F 24.6 °F 28.4 °F 100% 30.42 in 1.0 mi East 3.5 mph - N/A   Overcast
2:47 AM 28.4 °F 24.6 °F 28.4 °F 100% 30.42 in 1.8 mi East 3.5 mph - N/A   Overcast
2:54 AM 28.0 °F 22.8 °F 28.0 °F 100% 30.43 in 1.2 mi East 4.6 mph - N/A   Overcast
3:06 AM 28.4 °F 23.3 °F 28.4 °F 100% 30.43 in 0.8 mi ESE 4.6 mph - N/A   Mist
3:14 AM 28.4 °F 23.3 °F 28.4 °F 100% 30.42 in 1.2 mi East 4.6 mph - N/A   Overcast
3:34 AM 28.4 °F - 28.4 °F 100% 30.42 in 0.8 mi Calm Calm - N/A   Mist
3:46 AM 28.4 °F - 28.4 °F 100% 30.41 in 1.0 mi Calm Calm - N/A   Mist
3:54 AM 28.0 °F 24.2 °F 28.0 °F 100% 30.43 in 0.8 mi East 3.5 mph - N/A   Mist
4:04 AM 28.4 °F - 28.4 °F 100% 30.41 in 1.2 mi Calm Calm - N/A   Overcast
4:36 AM 28.4 °F - 28.4 °F 100% 30.41 in 1.8 mi Calm Calm - N/A   Overcast
4:54 AM 28.0 °F 24.2 °F 27.0 °F 96% 30.42 in 2.5 mi ESE 3.5 mph - N/A   Overcast
5:02 AM 28.4 °F 24.6 °F 26.6 °F 93% 30.41 in 4.0 mi East 3.5 mph - N/A   Overcast
5:54 AM 28.0 °F 21.7 °F 27.0 °F 96% 30.43 in 2.0 mi NE 5.8 mph - N/A   Overcast
6:35 AM 28.4 °F 23.3 °F 26.6 °F 93% 30.43 in 3.0 mi NNE 4.6 mph - 0.00 in   Overcast
6:54 AM 28.0 °F 22.8 °F 27.0 °F 96% 30.45 in 3.0 mi ENE 4.6 mph - 0.00 in   Overcast
7:54 AM 28.0 °F 22.8 °F 27.0 °F 96% 30.47 in 3.0 mi East 4.6 mph - N/A   Overcast
8:54 AM 28.0 °F 21.7 °F 27.0 °F 96% 30.49 in 3.0 mi ENE 5.8 mph - N/A   Overcast
9:17 AM 28.4 °F 22.2 °F 26.6 °F 93% 30.47 in 3.0 mi NNE 5.8 mph - N/A   Overcast
9:54 AM 28.0 °F 24.2 °F 26.1 °F 92% 30.50 in 3.0 mi ENE 3.5 mph - N/A   Overcast
10:54 AM 28.0 °F - 27.0 °F 96% 30.50 in 4.0 mi Calm Calm - N/A   Overcast
11:54 AM 28.9 °F 23.9 °F 26.1 °F 89% 30.47 in 4.0 mi East 4.6 mph - N/A   Overcast
12:54 PM 28.9 °F 22.8 °F 27.0 °F 92% 30.46 in 4.0 mi NNE 5.8 mph - N/A   Overcast
1:54 PM 28.9 °F 23.9 °F 26.1 °F 89% 30.45 in 4.0 mi North 4.6 mph - 0.00 in   Overcast
2:54 PM 28.9 °F 21.1 °F 27.0 °F 92% 30.47 in 3.0 mi North 8.1 mph - 0.00 in   Overcast
3:54 PM 28.9 °F 21.9 °F 26.1 °F 89% 30.47 in 5.0 mi NNE 6.9 mph - N/A   Overcast
4:54 PM 28.0 °F 21.7 °F 25.0 °F 88% 30.47 in 6.0 mi North 5.8 mph - N/A   Overcast
5:54 PM 28.9 °F 21.9 °F 26.1 °F 89% 30.48 in 7.0 mi NNW 6.9 mph - N/A   Overcast
6:54 PM 28.9 °F 25.2 °F 25.0 °F 85% 30.48 in 10.0 mi NNE 3.5 mph - N/A   Overcast
7:54 PM 28.0 °F 22.8 °F 25.0 °F 88% 30.50 in 10.0 mi North 4.6 mph - N/A   Overcast
8:54 PM 28.0 °F - 25.0 °F 88% 30.50 in 10.0 mi Calm Calm - N/A   Overcast
9:54 PM 28.0 °F - 25.0 °F 88% 30.51 in 10.0 mi Calm Calm - N/A   Overcast
10:54 PM 28.4 °F - 24.8 °F 86% 30.49 in 10.0 mi Calm Calm - N/A   Overcast
11:54 PM 28.0 °F 22.8 °F 25.0 °F 88% 30.51 in 9.0 mi NNW 4.6 mph - N/A   Overcast